Weather History for Hallock, MN

Change the Weather History Date:

Friday, December 7, 2012

  Actual Average Record
Temperature  
Mean Temperature 10 °F -  
Max Temperature 17 °F 18 °F 53 °F (1939)
Min Temperature 3 °F 1 °F -26 °F (1958)
Degree Days  
Heating Degree Days 55    
Moisture  
Dew Point 7 °F    
Average Humidity 83    
Maximum Humidity 92    
Minimum Humidity 68    
Precipitation  
Precipitation 0.00 in - - ()
Sea Level Pressure  
Sea Level Pressure 30.08 in    
Wind  
Wind Speed 6 mph (NNW)    
Max Wind Speed 12 mph    
Max Gust Speed 16 mph    
Visibility 10 miles    
Events Snow    
Averages and records for this station are not official NWS values.
T = Trace of Precipitation, MM = Missing Value Source: NWS Daily Summary

Daily Weather History Graph

Daily Weather History Graph

Search for Another Location

Airport:

Trip Planner

Search our weather history database for the weather conditions in past years. The results will help you decide how hot, cold, wet, or windy it might be!

Date:

Astronomy

Dec. 07, 2012 Rise Set
Actual Time 8:07 AM CST 4:31 PM CST
Civil Twilight 7:30 AM CST 5:08 PM CST
Nautical Twilight 6:50 AM CST 5:48 PM CST
Astronomical Twilight 6:12 AM CST 6:26 PM CST
Moon 12:59 AM CST (12/7) 12:54 PM CST (12/7)
Length of Visible Light 9h 37m
Length of Day
8h 24m
Last Quarter, 38% of the Moon is Illuminated
Dec 7
Last Quarter
Dec 13
New
Dec 19
First Quarter
Dec 28
Full
Jan 4
Last Quarter

Hourly Weather History & Observations

Time (CST) Temp. Windchill Dew Point Humidity Pressure Visibility Wind Dir Wind Speed Gust Speed Precip Events Conditions
12:14 AM 15.8 °F 6.1 °F 10.4 °F 79% 30.00 in 10.0 mi NW 6.9 mph - N/A   Clear
12:34 AM 15.8 °F 7.2 °F 10.4 °F 79% 30.01 in 10.0 mi WNW 5.8 mph - N/A   Clear
12:53 AM 14.0 °F 2.9 °F 10.4 °F 86% 30.00 in 10.0 mi NW 8.1 mph - N/A   Clear
1:14 AM 14.0 °F 5.1 °F 10.4 °F 86% 30.00 in 10.0 mi NW 5.8 mph - N/A   Clear
1:34 AM 14.0 °F 3.9 °F 10.4 °F 86% 30.01 in 10.0 mi NW 6.9 mph - N/A   Scattered Clouds
1:54 AM 14.0 °F 6.5 °F 10.4 °F 86% 30.00 in 10.0 mi NW 4.6 mph - N/A   Overcast
2:14 AM 14.0 °F 6.5 °F 10.4 °F 86% 30.01 in 10.0 mi WNW 4.6 mph - N/A   Overcast
2:34 AM 12.2 °F 2.9 °F 10.4 °F 92% 30.01 in 10.0 mi NW 5.8 mph - N/A   Mostly Cloudy
2:54 AM 12.2 °F 4.3 °F 10.4 °F 92% 30.01 in 10.0 mi NW 4.6 mph - N/A   Clear
3:14 AM 12.2 °F 2.9 °F 10.4 °F 92% 30.02 in 10.0 mi WNW 5.8 mph - N/A   Clear
3:34 AM 12.2 °F 4.3 °F 10.4 °F 92% 30.02 in 10.0 mi West 4.6 mph - N/A   Clear
3:54 AM 12.2 °F 6.1 °F 8.6 °F 85% 30.02 in 10.0 mi WNW 3.5 mph - N/A   Clear
4:14 AM 12.2 °F 4.3 °F 8.6 °F 85% 30.02 in 10.0 mi WNW 4.6 mph - N/A   Clear
4:33 AM 10.4 °F 2.2 °F 8.6 °F 92% 30.03 in 10.0 mi NW 4.6 mph - N/A   Clear
4:54 AM 10.4 °F 2.2 °F 8.6 °F 92% 30.03 in 10.0 mi NW 4.6 mph - N/A   Clear
5:14 AM 10.4 °F 0.8 °F 6.8 °F 85% 30.03 in 10.0 mi NW 5.8 mph - N/A   Clear
5:33 AM 10.4 °F -0.4 °F 6.8 °F 85% 30.04 in 10.0 mi NW 6.9 mph - N/A   Clear
5:54 AM 10.4 °F 0.8 °F 6.8 °F 85% 30.05 in 10.0 mi NW 5.8 mph - N/A   Clear
6:14 AM 10.4 °F 0.8 °F 6.8 °F 85% 30.05 in 10.0 mi NNW 5.8 mph - N/A   Clear
6:33 AM 10.4 °F -1.5 °F 6.8 °F 85% 30.05 in 10.0 mi NNW 8.1 mph - N/A   Clear
6:54 AM 8.6 °F -3.7 °F 6.8 °F 92% 30.05 in 10.0 mi NNW 8.1 mph - N/A   Clear
7:14 AM 8.6 °F -3.7 °F 6.8 °F 92% 30.06 in 10.0 mi NNW 8.1 mph - N/A   Clear
7:33 AM 8.6 °F -2.6 °F 5.0 °F 85% 30.07 in 10.0 mi NNW 6.9 mph - N/A   Clear
7:54 AM 8.6 °F -2.6 °F 5.0 °F 85% 30.07 in 10.0 mi NNW 6.9 mph - N/A   Clear
8:10 AM 8.6 °F -1.3 °F 5.0 °F 85% 30.08 in 10.0 mi NNW 5.8 mph - N/A   Clear
8:34 AM 8.6 °F 0.1 °F 5.0 °F 85% 30.09 in 10.0 mi NNW 4.6 mph - N/A   Clear
8:52 AM 8.6 °F -1.3 °F 5.0 °F 85% 30.09 in 10.0 mi NNW 5.8 mph - N/A   Clear
9:14 AM 8.6 °F -3.7 °F 5.0 °F 85% 30.10 in 10.0 mi NNW 8.1 mph - N/A   Clear
9:34 AM 10.4 °F 2.2 °F 6.8 °F 85% 30.10 in 10.0 mi North 4.6 mph - N/A   Clear
9:54 AM 10.4 °F 0.8 °F 6.8 °F 85% 30.11 in 10.0 mi North 5.8 mph - N/A   Clear
10:14 AM 12.2 °F 2.9 °F 8.6 °F 85% 30.12 in 10.0 mi NNW 5.8 mph - N/A   Clear
10:34 AM 12.2 °F 4.3 °F 8.6 °F 85% 30.11 in 10.0 mi NNW 4.6 mph - N/A   Clear
10:54 AM 12.2 °F 2.9 °F 8.6 °F 85% 30.12 in 10.0 mi North 5.8 mph - N/A   Clear
11:14 AM 14.0 °F 6.5 °F 10.4 °F 86% 30.12 in 10.0 mi North 4.6 mph - N/A   Mostly Cloudy
11:34 AM 15.8 °F 8.6 °F 10.4 °F 79% 30.12 in 10.0 mi North 4.6 mph - N/A   Mostly Cloudy
11:54 AM 15.8 °F 5.1 °F 10.4 °F 79% 30.11 in 10.0 mi North 8.1 mph - N/A   Scattered Clouds
12:14 PM 15.8 °F 10.2 °F 10.4 °F 79% 30.11 in 3.0 mi NW 3.5 mph - N/A Snow Light Snow
12:34 PM 15.8 °F 2.7 °F 10.4 °F 79% 30.10 in 10.0 mi North 11.5 mph - N/A   Overcast
12:54 PM 17.6 °F 8.2 °F 8.6 °F 68% 30.09 in 10.0 mi North 6.9 mph - N/A   Mostly Cloudy
1:14 PM 17.6 °F 5.0 °F 8.6 °F 68% 30.09 in 10.0 mi North 11.5 mph - N/A   Mostly Cloudy
1:34 PM 15.8 °F 4.2 °F 8.6 °F 73% 30.10 in 10.0 mi North 9.2 mph - N/A   Mostly Cloudy
1:54 PM 15.8 °F 4.2 °F 8.6 °F 73% 30.10 in 10.0 mi NNW 9.2 mph - N/A   Mostly Cloudy
2:14 PM 17.6 °F 5.0 °F 8.6 °F 68% 30.10 in 10.0 mi NNW 11.5 mph 16.1 mph N/A   Scattered Clouds
2:34 PM 15.8 °F 2.7 °F 6.8 °F 68% 30.10 in 10.0 mi NNW 11.5 mph - N/A   Mostly Cloudy
2:54 PM 14.0 °F 2.0 °F 6.8 °F 73% 30.11 in 10.0 mi NNW 9.2 mph - N/A   Scattered Clouds
3:14 PM 15.8 °F 4.2 °F 6.8 °F 68% 30.11 in 10.0 mi NNW 9.2 mph - N/A   Clear
3:34 PM 14.0 °F 2.0 °F 6.8 °F 73% 30.11 in 10.0 mi NNW 9.2 mph - N/A   Clear
3:54 PM 14.0 °F 2.0 °F 6.8 °F 73% 30.11 in 10.0 mi North 9.2 mph - N/A   Clear
4:14 PM 12.2 °F 1.7 °F 6.8 °F 79% 30.11 in 10.0 mi NNW 6.9 mph - N/A   Clear
4:34 PM 12.2 °F -0.2 °F 6.8 °F 79% 30.11 in 10.0 mi NNW 9.2 mph - N/A   Clear
4:54 PM 10.4 °F -1.5 °F 6.8 °F 85% 30.12 in 10.0 mi NNW 8.1 mph - N/A   Clear
5:14 PM 10.4 °F -2.4 °F 6.8 °F 85% 30.12 in 10.0 mi North 9.2 mph - N/A   Clear
5:34 PM 10.4 °F -3.3 °F 5.0 °F 79% 30.12 in 10.0 mi North 10.4 mph - N/A   Clear
5:54 PM 10.4 °F -2.4 °F 5.0 °F 79% 30.12 in 10.0 mi North 9.2 mph - N/A   Clear
6:14 PM 10.4 °F -1.5 °F 3.2 °F 73% 30.12 in 10.0 mi North 8.1 mph - N/A   Clear
6:34 PM 8.6 °F -3.7 °F 3.2 °F 79% 30.12 in 10.0 mi North 8.1 mph - N/A   Clear
7:14 PM 8.6 °F -2.6 °F 3.2 °F 79% 30.12 in 10.0 mi North 6.9 mph - N/A   Clear
7:34 PM 8.6 °F -2.6 °F 3.2 °F 79% 30.12 in 10.0 mi North 6.9 mph - N/A   Clear
7:54 PM 6.8 °F -4.8 °F 3.2 °F 85% 30.12 in 10.0 mi North 6.9 mph - N/A   Clear
8:34 PM 6.8 °F -3.5 °F 1.4 °F 79% 30.12 in 10.0 mi North 5.8 mph - N/A   Clear
8:54 PM 6.8 °F -3.5 °F 1.4 °F 79% 30.12 in 10.0 mi North 5.8 mph - N/A   Clear
9:14 PM 5.0 °F -5.6 °F 1.4 °F 85% 30.12 in 10.0 mi North 5.8 mph - N/A   Clear
9:34 PM 5.0 °F -2.1 °F 1.4 °F 85% 30.12 in 10.0 mi North 3.5 mph - N/A   Clear
9:54 PM 5.0 °F -2.1 °F 1.4 °F 85% 30.11 in 10.0 mi North 3.5 mph - N/A   Clear
10:14 PM 5.0 °F -5.6 °F 1.4 °F 85% 30.10 in 10.0 mi North 5.8 mph - N/A   Clear
10:34 PM 5.0 °F -2.1 °F 1.4 °F 85% 30.10 in 10.0 mi NNE 3.5 mph - N/A   Clear
10:54 PM 5.0 °F - 1.4 °F 85% 30.10 in 10.0 mi Calm Calm - N/A   Clear
11:14 PM 3.2 °F - 1.4 °F 92% 30.10 in 10.0 mi Calm Calm - N/A   Clear
11:34 PM 3.2 °F - 1.4 °F 92% 30.10 in 10.0 mi Calm Calm - N/A   Clear
11:54 PM 5.0 °F -4.1 °F 1.4 °F 85% 30.10 in 10.0 mi ENE 4.6 mph - N/A   Clear